Stations météo

Publicité
Fehmarn, Allemagne (10055): Température de l'air & dewpoint: 21.04.2018 02:00:00 - 27.04.2018 02:00:00 (CEST)Fehmarn, Allemagne (10055): Température de l'air 5cm & Température de l'air -5cm: 21.04.2018 02:00:00 - 27.04.2018 02:00:00 (CEST)Fehmarn, Allemagne (10055): Température de l'air -20cm & Température de l'air -100cm: 21.04.2018 02:00:00 - 27.04.2018 02:00:00 (CEST)Fehmarn, Allemagne (10055): Vitesse du vent & gusts: 21.04.2018 02:00:00 - 27.04.2018 02:00:00 (CEST)Fehmarn, Allemagne (10055): Direction du vent: 21.04.2018 02:00:00 - 27.04.2018 02:00:00 (CEST)Fehmarn, Allemagne (10055): reduced air pressure: 21.04.2018 02:00:00 - 27.04.2018 02:00:00 (CEST)Fehmarn, Allemagne (10055): visibility: 21.04.2018 02:00:00 - 27.04.2018 02:00:00 (CEST)Fehmarn, Allemagne (10055): Ensoleillement: 21.04.2018 02:00:00 - 27.04.2018 02:00:00 (CEST)Fehmarn, Allemagne (10055): Quantités de précipitations: 21.04.2018 02:00:00 - 27.04.2018 02:00:00 (CEST)
Date & Time tt [°C] td [°C] tt 5cm [°C] tt -5cm [°C] tt -20cm [°C] tt -100cm [°C] ff [km/h] ff [knt] fx [km/h] fx [knt] dd ppp [hPa] vv [km] sd [min] rr [mm]
27.04.2018 02:00:00 7,6 5,2 6,5 7,5 10,0 9,6 24 13 39 21 SW 1013,2 22 0 0,0
27.04.2018 01:00:00 7,8 5,6 7,0 7,6 10,3 9,6 23 12 35 19 SW 1013,3 21 0 0,0
27.04.2018 00:00:00 7,8 5,7 6,4 7,7 10,6 9,6 22 12 37 20 WSW 1013,3 21 0 0,0
26.04.2018 23:00:00 8,0 5,4 6,7 8,1 10,9 9,6 29 16 40 22 WSW 1013,2 24 0 0,0
26.04.2018 22:00:00 8,5 5,6 7,5 8,7 11,2 9,6 33 18 41 22 W 1013,0 28 0 0,0
26.04.2018 21:00:00 8,8 5,8 8,2 9,6 11,5 9,6 36 19 52 28 W 1012,5 27 0 0,0
26.04.2018 20:00:00 9,1 5,6 8,8 10,5 11,7 9,6 34 19 46 25 W 1011,9 41 9 0,0
26.04.2018 19:00:00 9,6 5,8 10,0 11,8 11,9 9,6 35 19 49 26 W 1011,4 26 48 0,0
26.04.2018 18:00:00 9,9 5,9 10,6 13,3 11,9 9,6 37 20 45 25 W 1010,9 13 60 0,0
26.04.2018 17:00:00 10,3 6,1 11,4 14,2 11,7 9,6 36 19 46 25 W 1010,9 15 60 0,0
26.04.2018 16:00:00 10,4 6,2 11,7 14,6 11,5 9,6 32 18 50 27 W 1010,5 15 52 0,0
26.04.2018 15:00:00 11,1 5,2 12,8 14,7 11,2 9,6 34 18 46 25 W 1009,9 19 42 0,0
26.04.2018 14:00:00 10,6 6,4 13,4 16,1 10,8 9,6 20 11 48 26 WSW 1009,7 24 45 0,0
26.04.2018 13:00:00 9,6 6,7 10,3 15,3 10,3 9,6 21 12 28 15 WSW 1009,5 27 49 0,0
26.04.2018 12:00:00 10,6 7,0 13,9 14,8 9,7 9,6 18 10 32 17 WSW 1009,2 18 59 0,0
26.04.2018 11:00:00 9,5 7,0 11,4 12,7 9,3 9,6 21 12 35 19 WSW 1009,0 15 49 0,0
26.04.2018 10:00:00 9,0 6,5 11,5 10,8 9,0 9,6 22 12 35 19 SW 1008,6 18 40 0,0
26.04.2018 09:00:00 8,3 5,9 9,0 8,8 8,9 9,6 23 12 37 20 SW 1008,4 25 34 0,0
26.04.2018 08:00:00 8,0 6,2 7,6 7,6 8,9 9,6 17 9 34 19 SW 1008,0 16 0 0,0
26.04.2018 07:00:00 7,4 6,1 6,7 6,9 9,0 9,6 22 12 35 19 SW 1007,7 10 0 0,0
26.04.2018 06:00:00 7,1 6,2 5,8 6,5 9,2 9,6 22 12 33 18 SW 1007,6 7 0 0,0
26.04.2018 05:00:00 7,2 6,1 5,9 6,8 9,4 9,6 21 11 35 19 WSW 1007,8 15 0 0,0
26.04.2018 04:00:00 7,1 6,0 5,9 7,3 9,5 9,6 29 16 41 22 WSW 1007,9 19 0 0,0
26.04.2018 03:00:00 8,0 6,7 7,3 7,7 9,6 9,6 33 18 41 22 W 1007,9 23 0 1,0
26.04.2018 02:00:00 7,7 7,2 7,4 7,9 9,8 9,6 30 16 40 22 WSW 1007,9 2,3 0 0,2
26.04.2018 01:00:00 8,2 6,7 7,2 7,8 9,9 9,6 24 13 36 19 SW 1007,9 26 0 0,0
26.04.2018 00:00:00 8,5 6,4 7,7 8,0 10,1 9,6 20 11 32 17 SW 1008,0 42 0 0,0
25.04.2018 23:00:00 8,7 6,3 8,0 8,0 10,4 9,6 17 9 27 14 SW 1008,1 66 0 0,0
25.04.2018 22:00:00 8,4 6,5 7,0 8,1 10,6 9,6 15 8 27 15 WSW 1008,2 48 0 0,0
25.04.2018 21:00:00 8,1 6,3 7,0 8,8 10,8 9,6 24 13 41 22 WSW 1008,1 47 0 0,0
25.04.2018 20:00:00 8,3 6,6 8,1 9,7 11,0 9,6 26 14 42 23 W 1008,0 50 0 0,0
25.04.2018 19:00:00 8,9 6,7 8,5 11,1 11,0 9,6 35 19 44 24 W 1007,8 46 51 0,0
25.04.2018 18:00:00 9,4 6,8 10,2 11,6 11,0 9,6 27 14 41 22 W 1007,7 16 21 0,0
25.04.2018 17:00:00 8,9 7,0 9,4 11,4 10,9 9,6 35 19 44 24 W 1007,2 37 9 0,0
25.04.2018 16:00:00 8,9 6,2 10,1 12,8 10,7 9,6 26 14 34 18 W 1006,4 10 43 0,0
25.04.2018 15:00:00 8,4 6,5 8,9 11,6 10,6 9,6 27 15 37 20 WNW 1005,7 38 0 0,0
25.04.2018 14:00:00 8,1 6,6 9,5 11,1 10,6 9,6 30 16 39 21 NNW 1004,3 37 3 0,0
25.04.2018 13:00:00 7,7 6,5 7,9 10,1 10,6 9,6 25 13 36 19 N 1002,2 36 0 0,0
25.04.2018 12:00:00 8,6 8,5 8,9 10,7 10,6 9,6 28 15 43 23 WNW 1000,5 7 0 0,9
25.04.2018 11:00:00 9,7 9,4 9,7 10,8 10,5 9,6 37 20 51 28 W 999,5 21 0 5,7
25.04.2018 10:00:00 11,0 10,5 11,0 11,6 10,3 9,6 23 13 39 21 SW 999,0 3,7 1 0,1
25.04.2018 09:00:00 11,3 10,5 11,2 10,2 10,2 9,6 23 12 37 20 SW 999,3 5 0 0,2
25.04.2018 08:00:00 9,8 9,5 9,7 9,1 10,3 9,6 16 9 25 14 S 1000,0 4,5 0 1,1
25.04.2018 07:00:00 7,9 7,8 7,7 8,6 10,4 9,6 11 6 31 17 SE 1001,0 3,1 0 2,1
25.04.2018 06:00:00 7,4 7,0 7,2 8,7 10,6 9,6 15 8 23 13 SE 1002,4 5 0 1,0
25.04.2018 05:00:00 7,6 7,0 7,3 8,9 10,8 9,6 10 5 14 8 SE 1004,2 5 0 1,0
25.04.2018 04:00:00 7,6 7,0 7,3 9,0 10,9 9,6 11 6 16 9 SSE 1005,5 12 0 1,5
25.04.2018 03:00:00 7,7 6,6 7,3 9,2 11,1 9,6 9 5 17 9 S 1006,9 10 0 0,7
25.04.2018 02:00:00 7,9 6,4 7,2 9,4 11,3 9,6 9 5 21 12 SSW 1007,9 19 0 0,2
25.04.2018 01:00:00 8,2 6,1 7,3 9,6 11,5 9,6 14 7 26 14 SW 1008,8 26 0 0,3
25.04.2018 00:00:00 8,6 6,1 7,6 10,0 11,8 9,6 19 11 35 19 WSW 1009,6 27 0 0,3
24.04.2018 23:00:00 9,3 6,2 8,9 10,5 12,0 9,6 29 15 37 20 WSW 1010,3 34 0 0,0
24.04.2018 22:00:00 9,4 6,3 9,0 10,7 12,3 9,6 27 15 36 19 WSW 1010,3 36 0 0,0
24.04.2018 21:00:00 9,5 6,3 8,6 11,2 12,5 9,6 27 14 38 20 WSW 1010,2 35 3 0,0
24.04.2018 20:00:00 10,0 6,5 9,6 12,6 12,7 9,6 32 17 44 24 W 1010,3 35 58 0,0
24.04.2018 19:00:00 10,6 6,5 11,3 14,2 12,6 9,6 32 18 44 24 W 1010,1 38 50 0,0
24.04.2018 18:00:00 11,2 6,4 12,3 15,3 12,5 9,6 37 20 47 25 W 1010,2 23 60 0,0
24.04.2018 17:00:00 10,9 6,5 12,3 16,1 12,1 9,6 36 19 48 26 W 1010,2 22 60 0,0
24.04.2018 16:00:00 11,1 6,7 13,3 16,3 11,7 9,6 37 20 48 26 W 1010,4 15 60 0,0
24.04.2018 15:00:00 11,3 7,0 13,3 15,5 11,3 9,5 37 20 54 29 W 1010,4 16 53 0,0
24.04.2018 14:00:00 10,9 7,1 13,1 14,7 10,9 9,5 43 23 53 28 W 1010,0 16 45 0,0
24.04.2018 13:00:00 10,8 8,9 12,7 11,5 10,8 9,5 29 16 39 21 WSW 1009,7 12 2 0,0
24.04.2018 12:00:00 9,7 8,9 9,5 10,4 10,8 9,5 30 16 42 23 WSW 1009,6 7 0 0,0
24.04.2018 11:00:00 10,1 8,6 10,4 11,0 10,7 9,5 27 15 42 23 SW 1009,3 12 0 0,0
24.04.2018 10:00:00 10,7 8,0 11,8 10,8 10,7 9,5 28 15 43 23 SW 1009,4 16 0 0,0
24.04.2018 09:00:00 10,4 7,1 10,3 10,2 10,7 9,5 28 15 41 22 SW 1009,5 20 0 0,0
24.04.2018 08:00:00 10,3 6,8 10,1 9,7 10,7 9,5 24 13 40 22 SW 1009,7 21 0 0,0
24.04.2018 07:00:00 9,4 6,4 9,1 9,1 10,8 9,5 16 9 34 18 S 1010,0 17 0 0,0
24.04.2018 06:00:00 9,3 6,0 8,8 9,0 11,0 9,5 19 11 33 18 S 1010,5 24 0 0,0
24.04.2018 05:00:00 9,1 5,7 8,5 9,0 11,1 9,5 16 9 31 17 S 1011,0 23 0 0,0
24.04.2018 04:00:00 9,0 5,8 8,4 8,8 11,3 9,4 20 11 32 17 SSW 1011,4 18 0 0,0
24.04.2018 03:00:00 8,6 6,5 7,8 8,8 11,6 9,4 19 11 35 19 SW 1011,8 21 0 0,0
24.04.2018 02:00:00 8,5 6,5 7,4 9,0 11,9 9,4 24 13 38 20 WSW 1012,5 20 0 0,0
24.04.2018 01:00:00 8,6 6,7 7,2 9,2 12,2 9,4 21 12 32 17 WSW 1012,9 23 0 0,0
24.04.2018 00:00:00 8,8 6,5 7,5 9,6 12,6 9,4 24 13 39 21 WSW 1013,0 35 0 0,0
23.04.2018 23:00:00 9,1 6,7 7,9 10,2 13,0 9,4 30 16 39 21 WSW 1012,8 41 0 0,0
23.04.2018 22:00:00 9,7 6,9 8,5 10,8 13,4 9,4 29 15 37 20 WSW 1012,9 62 0 0,0
23.04.2018 21:00:00 9,8 7,0 8,9 11,7 13,7 9,4 31 17 40 22 W 1012,5 44 2 0,0
23.04.2018 20:00:00 10,3 6,9 9,9 13,1 14,0 9,4 32 17 45 24 W 1012,3 35 60 0,0
23.04.2018 19:00:00 11,1 6,6 11,4 15,0 14,1 9,4 35 19 42 23 W 1011,7 29 60 0,0
23.04.2018 18:00:00 11,3 7,2 12,2 16,5 14,1 9,3 31 17 39 21 W 1011,7 24 59 0,0
23.04.2018 17:00:00 11,9 7,6 13,2 17,3 13,9 9,3 32 18 43 23 W 1011,4 24 54 0,0
23.04.2018 16:00:00 11,9 7,5 13,4 18,0 13,5 9,3 31 17 40 22 W 1011,4 31 60 0,0
23.04.2018 15:00:00 12,3 7,8 14,3 17,6 13,2 9,3 32 17 39 21 W 1011,3 28 60 0,0
23.04.2018 14:00:00 12,0 8,4 14,0 16,4 12,9 9,3 30 16 36 20 W 1010,9 22 27 0,0
23.04.2018 13:00:00 11,4 9,0 14,0 16,9 12,5 9,3 20 11 30 16 W 1010,6 8 60 0,0
23.04.2018 12:00:00 11,0 9,5 14,0 15,0 12,3 9,3 24 13 31 17 W 1010,2 4,2 29 0,0
23.04.2018 11:00:00 10,6 9,4 11,7 13,5 12,2 9,3 27 14 35 19 W 1009,4 3,2 6 0,0
23.04.2018 10:00:00 11,1 9,6 13,4 13,9 12,0 9,2 23 12 29 16 WSW 1008,6 4,5 60 0,0
23.04.2018 09:00:00 12,0 10,7 13,2 12,7 12,0 9,2 22 12 30 16 WSW 1007,9 5 24 0,0
23.04.2018 08:00:00 13,7 11,7 13,7 11,9 12,0 9,2 18 10 29 16 SW 1007,1 8 4 0,0
23.04.2018 07:00:00 13,4 11,3 12,1 11,2 12,1 9,2 22 12 32 17 SW 1007,0 11 0 0,0
23.04.2018 06:00:00 13,6 10,8 11,9 10,7 12,3 9,2 21 11 36 19 SSW 1006,8 15 0 0,0
23.04.2018 05:00:00 11,5 9,7 10,2 10,5 12,5 9,2 17 9 27 15 S 1007,0 12 0 0,0
23.04.2018 04:00:00 10,3 8,9 9,2 10,8 12,7 9,2 18 10 28 15 S 1007,3 12 0 0,0
23.04.2018 03:00:00 11,2 9,7 10,4 11,5 12,9 9,2 11 6 23 12 SE 1007,2 13 0 0,5
23.04.2018 02:00:00 9,9 8,9 9,7 11,5 13,2 9,1 6 4 33 18 E 1008,9 7 0 3,3
23.04.2018 01:00:00 10,6 7,4 10,1 12,0 13,5 9,1 20 11 29 16 ESE 1009,1 12 0 0,0
23.04.2018 00:00:00 10,5 7,1 9,6 12,0 13,8 9,1 21 11 28 15 ESE 1009,0 26 0 0,0
22.04.2018 23:00:00 11,0 7,2 9,9 12,5 14,2 9,1 23 12 31 17 ESE 1009,9 25 0 0,0
22.04.2018 22:00:00 10,8 7,5 9,8 13,1 14,6 9,1 18 10 29 15 ESE 1010,7 15 0 0,0
22.04.2018 21:00:00 10,6 6,3 9,6 14,0 15,0 9,1 19 10 27 14 E 1011,2 28 0 0,0
22.04.2018 20:00:00 11,0 5,7 10,4 15,6 15,3 9,1 20 11 28 15 E 1011,8 48 3 0,0
22.04.2018 19:00:00 12,0 6,1 12,0 17,6 15,4 9,1 19 10 30 16 E 1012,2 49 38 0,0
22.04.2018 18:00:00 13,4 6,3 14,8 19,7 15,2 9,1 21 11 32 17 E 1012,6 27 59 0,0
22.04.2018 17:00:00 14,1 4,6 15,5 21,3 14,9 9,1 20 11 27 15 E 1013,2 40 60 0,0
22.04.2018 16:00:00 14,9 4,9 17,7 21,8 14,4 9,0 15 8 24 13 E 1014,5 29 58 0,0
22.04.2018 15:00:00 13,6 4,7 16,5 22,2 13,8 9,0 18 10 25 14 ENE 1015,5 29 60 0,0
22.04.2018 14:00:00 13,5 6,6 16,8 21,8 13,0 9,0 18 10 23 12 ENE 1015,8 21 60 0,0
22.04.2018 13:00:00 12,0 7,2 16,1 20,3 12,3 9,0 14 8 19 10 ENE 1016,3 18 60 0,0
22.04.2018 12:00:00 11,5 7,3 15,6 18,5 11,7 9,0 9 5 11 6 NE 1017,0 18 60 0,0
22.04.2018 11:00:00 9,9 6,7 13,4 15,3 11,3 9,0 5 3 8 5 NNE 1017,5 13 60 0,0
22.04.2018 10:00:00 8,4 7,2 11,7 12,7 11,1 8,9 5 3 9 5 WNW 1017,7 4,2 55 0,0
22.04.2018 09:00:00 8,2 7,3 9,6 11,2 11,0 8,9 5 3 8 4 W 1017,7 3,4 60 0,0
22.04.2018 08:00:00 7,5 6,9 8,2 9,5 11,1 8,9 6 3 12 6 W 1018,1 2,6 57 0,0
22.04.2018 07:00:00 7,0 6,7 6,7 8,4 11,4 8,9 9 5 12 6 W 1018,3 1,4 14 0,0
22.04.2018 06:00:00 6,9 6,6 4,7 8,4 11,7 8,9 7 4 13 7 W 1018,2 1,9 0 0,0
22.04.2018 05:00:00 7,4 7,0 6,2 8,8 12,0 8,9 11 6 16 8 W 1018,4 3,2 0 0,0
22.04.2018 04:00:00 7,6 6,9 6,0 9,2 12,4 8,8 12 7 16 9 W 1018,8 7 0 0,0
22.04.2018 03:00:00 7,9 6,8 6,4 9,7 12,7 8,8 13 7 19 10 W 1019,0 18 0 0,0
22.04.2018 02:00:00 8,1 6,9 7,0 10,2 13,1 8,8 11 6 18 10 W 1019,5 19 0 0,0
22.04.2018 01:00:00 8,5 7,1 7,0 10,8 13,4 8,8 16 8 21 12 W 1019,8 19 0 0,0
22.04.2018 00:00:00 8,9 7,1 7,8 11,3 13,8 8,8 13 7 21 11 W 1019,6 13 0 0,0
21.04.2018 23:00:00 9,0 6,6 7,5 12,1 14,3 8,8 13 7 18 10 W 1019,6 15 0 0,0
21.04.2018 22:00:00 9,9 6,5 8,3 13,0 14,7 8,7 15 8 18 10 W 1019,8 20 0 0,0
21.04.2018 21:00:00 11,3 6,8 8,9 14,3 15,0 8,7 8 4 9 5 W 1019,9 25 0 0,0
21.04.2018 20:00:00 13,1 6,3 11,1 16,1 15,2 8,7 6 3 9 5 WSW 1019,8 29 33 0,0
21.04.2018 19:00:00 14,0 7,2 14,8 18,2 15,2 8,7 9 5 14 8 W 1020,1 24 60 0,0
21.04.2018 18:00:00 13,6 6,9 15,4 19,7 15,0 8,7 12 7 17 9 W 1020,5 27 60 0,0
21.04.2018 17:00:00 13,3 7,3 15,2 20,3 14,6 8,6 16 8 23 12 W 1021,0 24 60 0,0
21.04.2018 16:00:00 12,2 7,4 15,2 20,4 14,2 8,6 18 10 24 13 W 1021,4 15 60 0,0
21.04.2018 15:00:00 11,5 7,7 14,5 20,3 13,7 8,6 18 10 24 13 W 1021,8 14 60 0,0
21.04.2018 14:00:00 9,8 7,0 12,8 20,0 13,1 8,6 19 10 25 13 W 1022,1 7 60 0,0
21.04.2018 13:00:00 9,9 7,7 14,0 18,9 12,6 8,6 19 10 24 13 W 1022,3 6 60 0,0
21.04.2018 12:00:00 9,0 7,0 12,3 17,1 12,1 8,5 18 10 24 13 W 1022,3 4,8 60 0,0
21.04.2018 11:00:00 8,5 6,7 11,4 15,3 11,8 8,5 18 10 23 12 W 1022,0 4,3 60 0,0
21.04.2018 10:00:00 8,3 6,9 10,9 13,3 11,7 8,5 16 9 22 12 W 1021,6 3,0 60 0,0
21.04.2018 09:00:00 7,8 7,0 9,4 11,3 11,7 8,5 18 10 24 13 W 1021,0 1,9 60 0,0
21.04.2018 08:00:00 7,9 7,2 8,5 10,0 11,9 8,4 22 12 27 15 WNW 1020,6 1,5 60 0,0
21.04.2018 07:00:00 7,7 7,3 7,4 9,4 12,2 8,4 20 11 27 15 W 1020,0 1,1 1 0,0
21.04.2018 06:00:00 8,0 7,5 7,2 9,6 12,5 8,4 22 12 26 14 W 1019,5 1,1 0 0,0
21.04.2018 05:00:00 8,2 7,5 7,5 10,0 12,8 8,4 21 12 25 14 W 1019,3 1,2 0 0,0
21.04.2018 04:00:00 8,3 7,5 7,6 10,4 13,1 8,3 19 10 25 14 W 1019,2 1,3 0 0,0
21.04.2018 03:00:00 8,5 7,6 7,9 10,9 13,5 8,3 21 11 27 15 W 1019,3 1,4 0 0,0
21.04.2018 02:00:00 9,0 7,6 8,4 11,4 13,9 8,3 21 12 26 14 W 1019,2 2,0 0 0,0

tt = Température de l'air
td = dewpoint
tt 5cm = Température de l'air 5cm
tt -5cm = Température de l'air -5cm
tt -20cm = Température de l'air -20cm
tt -100cm = Température de l'air -100cm
ff = Vitesse du vent
fx = gusts
dd = Direction du vent
ppp = reduced air pressure
vv = visibility
sd = Ensoleillement
rr = Quantités de précipitations

stations d'obs. à proximité